����������;��������(kWh)
2017-05-08 00:00;81,95
2017-05-08 00:15;83,1
2017-05-08 00:30;86
2017-05-08 00:45;91,9
2017-05-08 01:00;92,8
2017-05-08 01:15;89,5
2017-05-08 01:30;84,45
2017-05-08 01:45;85,8
2017-05-08 02:00;86,5
2017-05-08 02:15;84,6
2017-05-08 02:30;83,1
2017-05-08 02:45;86,1
2017-05-08 03:00;85,5
2017-05-08 03:15;84,35
2017-05-08 03:30;85,15
2017-05-08 03:45;86,75
2017-05-08 04:00;86
2017-05-08 04:15;83,8
2017-05-08 04:30;85
2017-05-08 04:45;87,6
2017-05-08 05:00;84,1
2017-05-08 05:15;91,1
2017-05-08 05:30;99,1
2017-05-08 05:45;96,8
2017-05-08 06:00;96,05
2017-05-08 06:15;95
2017-05-08 06:30;96,85
2017-05-08 06:45;92,7
2017-05-08 07:00;90,45
2017-05-08 07:15;90,05
2017-05-08 07:30;91,4
2017-05-08 07:45;92,95
2017-05-08 08:00;97,3
2017-05-08 08:15;95,6
2017-05-08 08:30;102,5
2017-05-08 08:45;114,1
2017-05-08 09:00;120,8
2017-05-08 09:15;120,4
2017-05-08 09:30;125,65
2017-05-08 09:45;139,5
2017-05-08 10:00;140,55
2017-05-08 10:15;143,85
2017-05-08 10:30;144,9
2017-05-08 10:45;147,6
2017-05-08 11:00;154
2017-05-08 11:15;151,45
2017-05-08 11:30;157,85
2017-05-08 11:45;162,85
2017-05-08 12:00;159,55
2017-05-08 12:15;159
2017-05-08 12:30;166,5
2017-05-08 12:45;171
2017-05-08 13:00;172,2
2017-05-08 13:15;175,05
2017-05-08 13:30;175
2017-05-08 13:45;169,95
2017-05-08 14:00;170,05
2017-05-08 14:15;165,15
2017-05-08 14:30;163,4
2017-05-08 14:45;166,2
2017-05-08 15:00;165,5
2017-05-08 15:15;160,25
2017-05-08 15:30;154,35
2017-05-08 15:45;148,6
2017-05-08 16:00;151,35
2017-05-08 16:15;144,4
2017-05-08 16:30;150,45
2017-05-08 16:45;151,1
2017-05-08 17:00;148,75
2017-05-08 17:15;143,35
2017-05-08 17:30;139,7
2017-05-08 17:45;137,5
2017-05-08 18:00;135,85
2017-05-08 18:15;132,3
2017-05-08 18:30;131,1
2017-05-08 18:45;129,85
2017-05-08 19:00;120,05
2017-05-08 19:15;113,85
2017-05-08 19:30;114,6
2017-05-08 19:45;114,1
2017-05-08 20:00;116,25
2017-05-08 20:15;115,85
2017-05-08 20:30;117,25
2017-05-08 20:45;115,25
2017-05-08 21:00;115,6
2017-05-08 21:15;112,95
2017-05-08 21:30;109
2017-05-08 21:45;107,3
2017-05-08 22:00;98,9
2017-05-08 22:15;95,25
2017-05-08 22:30;94,1
2017-05-08 22:45;95,6
2017-05-08 23:00;94,4
2017-05-08 23:15;92,45
2017-05-08 23:30;90,4
2017-05-08 23:45;87,65
2017-05-09 00:00;88,45
2017-05-09 00:15;90,85
2017-05-09 00:30;87,6
2017-05-09 00:45;86,6
2017-05-09 01:00;87,2
2017-05-09 01:15;84,6
2017-05-09 01:30;86,5
2017-05-09 01:45;87,15
2017-05-09 02:00;84,9
2017-05-09 02:15;84,25
2017-05-09 02:30;83,8
2017-05-09 02:45;79,75
2017-05-09 03:00;80,15
2017-05-09 03:15;84,25
2017-05-09 03:30;83,95
2017-05-09 03:45;82,4
2017-05-09 04:00;85,6
2017-05-09 04:15;83,45
2017-05-09 04:30;83,2
2017-05-09 04:45;83,75
2017-05-09 05:00;83,8
2017-05-09 05:15;89,2
2017-05-09 05:30;90,75
2017-05-09 05:45;91,45
2017-05-09 06:00;95,6
2017-05-09 06:15;95,35
2017-05-09 06:30;97,85
2017-05-09 06:45;97,25
2017-05-09 07:00;93
2017-05-09 07:15;91,85
2017-05-09 07:30;92,75
2017-05-09 07:45;98,55
2017-05-09 08:00;93,25
2017-05-09 08:15;96,8
2017-05-09 08:30;102,45
2017-05-09 08:45;99,7
2017-05-09 09:00;106,9
2017-05-09 09:15;113,5
2017-05-09 09:30;119,7
2017-05-09 09:45;120,4
2017-05-09 10:00;134,15
2017-05-09 10:15;141,35
2017-05-09 10:30;139,75
2017-05-09 10:45;144,55
2017-05-09 11:00;157,85
2017-05-09 11:15;148,15
2017-05-09 11:30;152,15
2017-05-09 11:45;160,55
2017-05-09 12:00;157,4
2017-05-09 12:15;155,3
2017-05-09 12:30;162,2
2017-05-09 12:45;162,7
2017-05-09 13:00;160,55
2017-05-09 13:15;162,1
2017-05-09 13:30;159,35
2017-05-09 13:45;159,65
2017-05-09 14:00;161,85
2017-05-09 14:15;160
2017-05-09 14:30;158,7
2017-05-09 14:45;156,7
2017-05-09 15:00;155,45
2017-05-09 15:15;149,25
2017-05-09 15:30;150,5
2017-05-09 15:45;149,85
2017-05-09 16:00;141,65
2017-05-09 16:15;133,6
2017-05-09 16:30;140,9
2017-05-09 16:45;144,3
2017-05-09 17:00;131
2017-05-09 17:15;128,9
2017-05-09 17:30;124,8
2017-05-09 17:45;131,4
2017-05-09 18:00;120,6
2017-05-09 18:15;123,95
2017-05-09 18:30;119,95
2017-05-09 18:45;121,25
2017-05-09 19:00;124,35
2017-05-09 19:15;112,7
2017-05-09 19:30;114,1
2017-05-09 19:45;122,1
2017-05-09 20:00;112,8
2017-05-09 20:15;111,6
2017-05-09 20:30;112,5
2017-05-09 20:45;114,95
2017-05-09 21:00;111,3
2017-05-09 21:15;106,85
2017-05-09 21:30;106,9
2017-05-09 21:45;104,4
2017-05-09 22:00;102,1
2017-05-09 22:15;97
2017-05-09 22:30;95,15
2017-05-09 22:45;93,9
2017-05-09 23:00;94
2017-05-09 23:15;89,55
2017-05-09 23:30;88,05
2017-05-09 23:45;86,95
2017-05-10 00:00;88,95
2017-05-10 00:15;84,85
2017-05-10 00:30;82,2
2017-05-10 00:45;79,4
2017-05-10 01:00;80,1
2017-05-10 01:15;79,1
2017-05-10 01:30;79,7
2017-05-10 01:45;79,4
2017-05-10 02:00;78,6
2017-05-10 02:15;79,3
2017-05-10 02:30;77,65
2017-05-10 02:45;79,2
2017-05-10 03:00;78,95
2017-05-10 03:15;79,45
2017-05-10 03:30;79,95
2017-05-10 03:45;81,1
2017-05-10 04:00;80,7
2017-05-10 04:15;80,45
2017-05-10 04:30;81,9
2017-05-10 04:45;80,2
2017-05-10 05:00;80,3
2017-05-10 05:15;84,3
2017-05-10 05:30;86,6
2017-05-10 05:45;90,4
2017-05-10 06:00;93
2017-05-10 06:15;88,55
2017-05-10 06:30;95,9
2017-05-10 06:45;89,95
2017-05-10 07:00;83,3
2017-05-10 07:15;90,8
2017-05-10 07:30;93,5
2017-05-10 07:45;96,8
2017-05-10 08:00;92,95
2017-05-10 08:15;91,5
2017-05-10 08:30;103,2
2017-05-10 08:45;111,2
2017-05-10 09:00;115
2017-05-10 09:15;120,3
2017-05-10 09:30;122,2
2017-05-10 09:45;122,1
2017-05-10 10:00;129,05
2017-05-10 10:15;138,65
2017-05-10 10:30;138,4
2017-05-10 10:45;140,2
2017-05-10 11:00;147,9
2017-05-10 11:15;141,95
2017-05-10 11:30;155,75
2017-05-10 11:45;157,15
2017-05-10 12:00;160,65
2017-05-10 12:15;162,8
2017-05-10 12:30;163,7
2017-05-10 12:45;159,65
2017-05-10 13:00;162,9
2017-05-10 13:15;170,95
2017-05-10 13:30;166,85
2017-05-10 13:45;170,55
2017-05-10 14:00;168,6
2017-05-10 14:15;162,5
2017-05-10 14:30;157,15
2017-05-10 14:45;155,05
2017-05-10 15:00;153,7
2017-05-10 15:15;149,55
2017-05-10 15:30;144,8
2017-05-10 15:45;141,8
2017-05-10 16:00;130,65
2017-05-10 16:15;132,15
2017-05-10 16:30;129,75
2017-05-10 16:45;127,75
2017-05-10 17:00;123,95
2017-05-10 17:15;132,7
2017-05-10 17:30;136,7
2017-05-10 17:45;121,15
2017-05-10 18:00;119,6
2017-05-10 18:15;124,35
2017-05-10 18:30;114,4
2017-05-10 18:45;116,5
2017-05-10 19:00;120
2017-05-10 19:15;108,8
2017-05-10 19:30;111,9
2017-05-10 19:45;109,5
2017-05-10 20:00;101,7
2017-05-10 20:15;105,55
2017-05-10 20:30;112,25
2017-05-10 20:45;114,95
2017-05-10 21:00;113,95
2017-05-10 21:15;108
2017-05-10 21:30;102,9
2017-05-10 21:45;103,8
2017-05-10 22:00;100,9
2017-05-10 22:15;96,2
2017-05-10 22:30;91,95
2017-05-10 22:45;92,15
2017-05-10 23:00;91,05
2017-05-10 23:15;89,7
2017-05-10 23:30;89,4
2017-05-10 23:45;85,85
2017-05-11 00:00;85,2
2017-05-11 00:15;83,35
2017-05-11 00:30;82,55
2017-05-11 00:45;79,8
2017-05-11 01:00;80,45
2017-05-11 01:15;82,55
2017-05-11 01:30;80,4
2017-05-11 01:45;80,55
2017-05-11 02:00;80,75
2017-05-11 02:15;80,3
2017-05-11 02:30;78,2
2017-05-11 02:45;79,2
2017-05-11 03:00;80,2
2017-05-11 03:15;80,7
2017-05-11 03:30;80,3
2017-05-11 03:45;80,8
2017-05-11 04:00;80,65
2017-05-11 04:15;79,55
2017-05-11 04:30;80,75
2017-05-11 04:45;79,45
2017-05-11 05:00;80,75
2017-05-11 05:15;89,25
2017-05-11 05:30;89,75
2017-05-11 05:45;93,05
2017-05-11 06:00;95,8
2017-05-11 06:15;94,75
2017-05-11 06:30;97,25
2017-05-11 06:45;93,4
2017-05-11 07:00;90,75
2017-05-11 07:15;89,8
2017-05-11 07:30;93,35
2017-05-11 07:45;101,6
2017-05-11 08:00;98,8
2017-05-11 08:15;102,25
2017-05-11 08:30;102,25
2017-05-11 08:45;104
2017-05-11 09:00;112,4
2017-05-11 09:15;119,8
2017-05-11 09:30;127,05
2017-05-11 09:45;127,95
2017-05-11 10:00;131
2017-05-11 10:15;135,4
2017-05-11 10:30;141,1
2017-05-11 10:45;141,7
2017-05-11 11:00;153
2017-05-11 11:15;145,6
2017-05-11 11:30;148,15
2017-05-11 11:45;149,5
2017-05-11 12:00;144,85
2017-05-11 12:15;151,85
2017-05-11 12:30;160,4
2017-05-11 12:45;163,4
2017-05-11 13:00;164,75
2017-05-11 13:15;163
2017-05-11 13:30;157
2017-05-11 13:45;160,35
2017-05-11 14:00;162,4
2017-05-11 14:15;159,95
2017-05-11 14:30;151,15
2017-05-11 14:45;153,8
2017-05-11 15:00;151,75
2017-05-11 15:15;149,7
2017-05-11 15:30;146,35
2017-05-11 15:45;142,95
2017-05-11 16:00;143,75
2017-05-11 16:15;138,9
2017-05-11 16:30;141,1
2017-05-11 16:45;140
2017-05-11 17:00;134,35
2017-05-11 17:15;127,2
2017-05-11 17:30;128,9
2017-05-11 17:45;135,9
2017-05-11 18:00;128,2
2017-05-11 18:15;127,25
2017-05-11 18:30;117,4
2017-05-11 18:45;116,55
2017-05-11 19:00;114,7
2017-05-11 19:15;109,1
2017-05-11 19:30;110,55
2017-05-11 19:45;112,3
2017-05-11 20:00;108,1
2017-05-11 20:15;112,2
2017-05-11 20:30;116,95
2017-05-11 20:45;115,65
2017-05-11 21:00;115,75
2017-05-11 21:15;111,1
2017-05-11 21:30;108,05
2017-05-11 21:45;107,9
2017-05-11 22:00;105,45
2017-05-11 22:15;100,4
2017-05-11 22:30;99,25
2017-05-11 22:45;101,05
2017-05-11 23:00;101,05
2017-05-11 23:15;96,55
2017-05-11 23:30;92
2017-05-11 23:45;93,6
2017-05-12 00:00;94,6
2017-05-12 00:15;94,65
2017-05-12 00:30;96,15
2017-05-12 00:45;91,6
2017-05-12 01:00;88,95
2017-05-12 01:15;88,05
2017-05-12 01:30;87,7
2017-05-12 01:45;88,4
2017-05-12 02:00;87,55
2017-05-12 02:15;87
2017-05-12 02:30;87,95
2017-05-12 02:45;85,95
2017-05-12 03:00;87
2017-05-12 03:15;85,1
2017-05-12 03:30;83,05
2017-05-12 03:45;82,2
2017-05-12 04:00;84,3
2017-05-12 04:15;84,55
2017-05-12 04:30;83,35
2017-05-12 04:45;83,95
2017-05-12 05:00;82,65
2017-05-12 05:15;88,35
2017-05-12 05:30;88,65
2017-05-12 05:45;96,3
2017-05-12 06:00;96,9
2017-05-12 06:15;93,9
2017-05-12 06:30;88,6
2017-05-12 06:45;97,5
2017-05-12 07:00;88,75
2017-05-12 07:15;90,85
2017-05-12 07:30;90,85
2017-05-12 07:45;104,7
2017-05-12 08:00;104,95
2017-05-12 08:15;102,6
2017-05-12 08:30;101,1
2017-05-12 08:45;107,25
2017-05-12 09:00;118,4
2017-05-12 09:15;120,55
2017-05-12 09:30;128,3
2017-05-12 09:45;126,2
2017-05-12 10:00;127,55
2017-05-12 10:15;134,6
2017-05-12 10:30;131,95
2017-05-12 10:45;136,4
2017-05-12 11:00;148,3
2017-05-12 11:15;143
2017-05-12 11:30;143,55
2017-05-12 11:45;152,3
2017-05-12 12:00;154,15
2017-05-12 12:15;155,8
2017-05-12 12:30;153,9
2017-05-12 12:45;154
2017-05-12 13:00;160,15
2017-05-12 13:15;165,3
2017-05-12 13:30;163,45
2017-05-12 13:45;167,15
2017-05-12 14:00;167,8
2017-05-12 14:15;159,85
2017-05-12 14:30;160,7
2017-05-12 14:45;171,2
2017-05-12 15:00;168,25
2017-05-12 15:15;162,6
2017-05-12 15:30;160,45
2017-05-12 15:45;153,2
2017-05-12 16:00;153,5
2017-05-12 16:15;155,45
2017-05-12 16:30;151,8
2017-05-12 16:45;148,95
2017-05-12 17:00;146,2
2017-05-12 17:15;142,45
2017-05-12 17:30;133,35
2017-05-12 17:45;130,9
2017-05-12 18:00;132,15
2017-05-12 18:15;128,55
2017-05-12 18:30;127,6
2017-05-12 18:45;127,35
2017-05-12 19:00;124,35
2017-05-12 19:15;118,35
2017-05-12 19:30;117,25
2017-05-12 19:45;117,15
2017-05-12 20:00;112,75
2017-05-12 20:15;113
2017-05-12 20:30;116,1
2017-05-12 20:45;114,7
2017-05-12 21:00;111,2
2017-05-12 21:15;110
2017-05-12 21:30;110,15
2017-05-12 21:45;105,1
2017-05-12 22:00;96,85
2017-05-12 22:15;97,1
2017-05-12 22:30;95,8
2017-05-12 22:45;93,15
2017-05-12 23:00;95,25
2017-05-12 23:15;90,2
2017-05-12 23:30;86,05
2017-05-12 23:45;85,15
2017-05-13 00:00;84,7
2017-05-13 00:15;90,5
2017-05-13 00:30;89,15
2017-05-13 00:45;88,5
2017-05-13 01:00;84,75
2017-05-13 01:15;88,8
2017-05-13 01:30;83,75
2017-05-13 01:45;80,05
2017-05-13 02:00;79,6
2017-05-13 02:15;80,1
2017-05-13 02:30;80,25
2017-05-13 02:45;80,2
2017-05-13 03:00;78,55
2017-05-13 03:15;79,85
2017-05-13 03:30;78,7
2017-05-13 03:45;80,25
2017-05-13 04:00;79,5
2017-05-13 04:15;81,45
2017-05-13 04:30;79,2
2017-05-13 04:45;80,1
2017-05-13 05:00;78,95
2017-05-13 05:15;79,8
2017-05-13 05:30;80,15
2017-05-13 05:45;81,95
2017-05-13 06:00;86,05
2017-05-13 06:15;84
2017-05-13 06:30;79,25
2017-05-13 06:45;78,35
2017-05-13 07:00;79,05
2017-05-13 07:15;78,2
2017-05-13 07:30;75,1
2017-05-13 07:45;75,15
2017-05-13 08:00;75,8
2017-05-13 08:15;76,6
2017-05-13 08:30;75,4
2017-05-13 08:45;57,35
2017-05-13 09:00;55,1
2017-05-13 09:15;55,3
2017-05-13 09:30;56,65
2017-05-13 09:45;58,55
2017-05-13 10:00;61,7
2017-05-13 10:15;68,55
2017-05-13 10:30;64,65
2017-05-13 10:45;65,5
2017-05-13 11:00;72,15
2017-05-13 11:15;69,95
2017-05-13 11:30;73,85
2017-05-13 11:45;73,8
2017-05-13 12:00;67,95
2017-05-13 12:15;63,85
2017-05-13 12:30;66,15
2017-05-13 12:45;67,95
2017-05-13 13:00;65,4
2017-05-13 13:15;64,05
2017-05-13 13:30;68,9
2017-05-13 13:45;69,7
2017-05-13 14:00;70,3
2017-05-13 14:15;67
2017-05-13 14:30;71
2017-05-13 14:45;68,15
2017-05-13 15:00;67,95
2017-05-13 15:15;72,1
2017-05-13 15:30;70,7
2017-05-13 15:45;71,25
2017-05-13 16:00;68,8
2017-05-13 16:15;71,25
2017-05-13 16:30;69,5
2017-05-13 16:45;73,3
2017-05-13 17:00;70,2
2017-05-13 17:15;66,6
2017-05-13 17:30;66,45
2017-05-13 17:45;69,6
2017-05-13 18:00;71,35
2017-05-13 18:15;69,55
2017-05-13 18:30;65,2
2017-05-13 18:45;65,45
2017-05-13 19:00;65,35
2017-05-13 19:15;66,65
2017-05-13 19:30;68,8
2017-05-13 19:45;69,9
2017-05-13 20:00;71,8
2017-05-13 20:15;73,7
2017-05-13 20:30;77
2017-05-13 20:45;126,45
2017-05-13 21:00;117,6
2017-05-13 21:15;115,55
2017-05-13 21:30;113,2
2017-05-13 21:45;110,8
2017-05-13 22:00;102,65
2017-05-13 22:15;102,85
2017-05-13 22:30;102
2017-05-13 22:45;102,85
2017-05-13 23:00;101,65
2017-05-13 23:15;97,5
2017-05-13 23:30;97,15
2017-05-13 23:45;98,7
2017-05-14 00:00;96,85
2017-05-14 00:15;97
2017-05-14 00:30;96,45
2017-05-14 00:45;92,05
2017-05-14 01:00;90,5
2017-05-14 01:15;90,9
2017-05-14 01:30;90,4
2017-05-14 01:45;90,3
2017-05-14 02:00;91,05
2017-05-14 02:15;91,9
2017-05-14 02:30;93,55
2017-05-14 02:45;92,2
2017-05-14 03:00;94,95
2017-05-14 03:15;93,45
2017-05-14 03:30;93,25
2017-05-14 03:45;92,65
2017-05-14 04:00;92,7
2017-05-14 04:15;93,1
2017-05-14 04:30;94,35
2017-05-14 04:45;94,05
2017-05-14 05:00;94,2
2017-05-14 05:15;97,3
2017-05-14 05:30;96,4
2017-05-14 05:45;99,85
2017-05-14 06:00;101,25
2017-05-14 06:15;96,25
2017-05-14 06:30;93,15
2017-05-14 06:45;92,25
2017-05-14 07:00;89,65
2017-05-14 07:15;84,85
2017-05-14 07:30;84,35
2017-05-14 07:45;83,85
2017-05-14 08:00;82,7
2017-05-14 08:15;86,05
2017-05-14 08:30;85,1
2017-05-14 08:45;84,3
2017-05-14 09:00;83,45
2017-05-14 09:15;82,95
2017-05-14 09:30;81
2017-05-14 09:45;80,85
2017-05-14 10:00;84,3
2017-05-14 10:15;92,85
2017-05-14 10:30;90,3
2017-05-14 10:45;91,9
2017-05-14 11:00;101,9
2017-05-14 11:15;91,5
2017-05-14 11:30;99,75
2017-05-14 11:45;94,5
2017-05-14 12:00;93,55
2017-05-14 12:15;105,05
2017-05-14 12:30;104,45
2017-05-14 12:45;103,05
2017-05-14 13:00;108,3
2017-05-14 13:15;106,3
2017-05-14 13:30;115,55
2017-05-14 13:45;107,35
2017-05-14 14:00;106,05
2017-05-14 14:15;104,9
2017-05-14 14:30;103,05
2017-05-14 14:45;105,95
2017-05-14 15:00;104,85
2017-05-14 15:15;107,65
2017-05-14 15:30;105,9
2017-05-14 15:45;108,55
2017-05-14 16:00;99,25
2017-05-14 16:15;94,3
2017-05-14 16:30;100
2017-05-14 16:45;100
2017-05-14 17:00;101,6
2017-05-14 17:15;95,85
2017-05-14 17:30;98,55
2017-05-14 17:45;101,35
2017-05-14 18:00;97,55
2017-05-14 18:15;100,5
2017-05-14 18:30;93,4
2017-05-14 18:45;96,55
2017-05-14 19:00;98
2017-05-14 19:15;97,65
2017-05-14 19:30;103,1
2017-05-14 19:45;100,1
2017-05-14 20:00;102,65
2017-05-14 20:15;109,55
2017-05-14 20:30;108,7
2017-05-14 20:45;110,6
2017-05-14 21:00;111,9
2017-05-14 21:15;110
2017-05-14 21:30;112,45
2017-05-14 21:45;107,25
2017-05-14 22:00;101,8
2017-05-14 22:15;102
2017-05-14 22:30;99,85
2017-05-14 22:45;101,8
2017-05-14 23:00;99,75
2017-05-14 23:15;98,65
2017-05-14 23:30;98,05
2017-05-14 23:45;97,7

